Time,TemperatureF,DewpointF,PressureIn,WindDirection,WindDirectionDegrees,WindSpeedMPH,WindSpeedGustMPH,Humidity,HourlyPrecipIn,Conditions,Clouds,dailyrainin,SoftwareType,DateUTC
2013-01-26 00:00:00,29.2,24.3,30.08,NW,315,0.7,1.8,82,0.00,,,0.00,WUHU216HW,2013-01-26 05:00:00,
2013-01-26 00:02:00,29.2,24.3,30.07,NW,315,0.9,1.8,82,0.00,,,0.00,WUHU216HW,2013-01-26 05:02:00,
2013-01-26 00:07:00,29.2,24.3,30.07,NW,315,0.4,2.2,82,0.00,,,0.00,WUHU216HW,2013-01-26 05:07:00,
2013-01-26 00:12:00,29.2,24.3,30.07,NW,315,0.0,2.2,82,0.00,,,0.00,WUHU216HW,2013-01-26 05:12:00,
2013-01-26 00:17:00,29.2,24.3,30.07,NW,315,1.1,1.8,82,0.00,,,0.00,WUHU216HW,2013-01-26 05:17:00,
2013-01-26 00:22:00,29.2,24.3,30.07,NW,315,0.7,1.8,82,0.00,,,0.00,WUHU216HW,2013-01-26 05:22:00,
2013-01-26 00:27:00,29.2,24.3,30.07,NW,315,2.0,2.5,82,0.00,,,0.00,WUHU216HW,2013-01-26 05:27:00,
2013-01-26 00:32:00,29.2,24.7,30.07,NW,315,0.4,2.5,83,0.00,,,0.00,WUHU216HW,2013-01-26 05:32:00,
2013-01-26 00:37:00,29.2,24.3,30.07,NW,315,1.8,2.0,82,0.00,,,0.00,WUHU216HW,2013-01-26 05:37:00,
2013-01-26 00:42:00,29.2,24.3,30.07,NW,315,1.1,1.8,82,0.00,,,0.00,WUHU216HW,2013-01-26 05:42:00,
2013-01-26 00:47:00,29.2,24.3,30.07,NW,315,0.4,2.0,82,0.00,,,0.00,WUHU216HW,2013-01-26 05:47:00,
2013-01-26 00:52:00,29.0,24.1,30.07,NW,315,0.0,2.0,82,0.00,,,0.00,WUHU216HW,2013-01-26 05:52:00,
2013-01-26 00:57:00,29.0,24.1,30.07,NW,315,0.9,1.6,82,0.00,,,0.00,WUHU216HW,2013-01-26 05:57:00,
2013-01-26 01:02:00,29.0,24.1,30.07,NW,315,1.1,1.6,82,0.00,,,0.00,WUHU216HW,2013-01-26 06:02:00,
2013-01-26 01:07:00,29.2,24.3,30.07,NW,315,0.4,1.3,82,0.00,,,0.00,WUHU216HW,2013-01-26 06:07:00,
2013-01-26 01:12:00,29.0,24.1,30.06,NW,315,0.4,1.3,82,0.00,,,0.00,WUHU216HW,2013-01-26 06:12:00,
2013-01-26 01:17:00,29.0,24.1,30.06,NW,315,0.7,2.0,82,0.00,,,0.00,WUHU216HW,2013-01-26 06:17:00,
2013-01-26 01:22:00,29.0,24.5,30.06,NW,315,0.4,2.5,83,0.00,,,0.00,WUHU216HW,2013-01-26 06:22:00,
2013-01-26 01:27:00,29.0,24.1,30.06,NW,315,0.2,2.5,82,0.00,,,0.00,WUHU216HW,2013-01-26 06:27:00,
2013-01-26 01:32:00,29.0,24.1,30.06,NW,315,0.0,0.9,82,0.00,,,0.00,WUHU216HW,2013-01-26 06:32:00,
2013-01-26 01:37:00,29.0,24.1,30.06,NW,315,0.7,1.1,82,0.00,,,0.00,WUHU216HW,2013-01-26 06:37:00,
2013-01-26 01:42:00,29.0,24.1,30.06,NW,315,0.4,1.3,82,0.00,,,0.00,WUHU216HW,2013-01-26 06:42:00,
2013-01-26 01:47:00,29.0,24.1,30.06,NW,315,0.4,1.3,82,0.00,,,0.00,WUHU216HW,2013-01-26 06:47:00,
2013-01-26 01:52:00,29.0,24.1,30.06,NW,315,0.7,1.1,82,0.00,,,0.00,WUHU216HW,2013-01-26 06:52:00,
2013-01-26 01:57:00,29.0,24.1,30.06,NW,315,0.4,1.3,82,0.00,,,0.00,WUHU216HW,2013-01-26 06:57:00,
2013-01-26 02:02:00,29.2,24.3,30.06,NW,315,1.1,1.8,82,0.00,,,0.00,WUHU216HW,2013-01-26 07:02:00,
2013-01-26 02:07:00,29.2,24.3,30.06,NW,315,0.7,1.8,82,0.00,,,0.00,WUHU216HW,2013-01-26 07:07:00,
2013-01-26 02:12:00,29.2,24.3,30.06,NW,315,0.2,1.1,82,0.00,,,0.00,WUHU216HW,2013-01-26 07:12:00,
2013-01-26 02:17:00,29.2,24.7,30.06,NW,315,0.4,2.2,83,0.00,,,0.00,WUHU216HW,2013-01-26 07:17:00,
2013-01-26 02:22:00,29.0,24.5,30.06,NW,315,0.4,2.2,83,0.00,,,0.00,WUHU216HW,2013-01-26 07:22:00,
2013-01-26 02:27:00,29.0,24.5,30.06,NW,315,0.4,1.8,83,0.00,,,0.00,WUHU216HW,2013-01-26 07:27:00,
2013-01-26 02:32:00,29.2,24.7,30.06,NW,315,1.1,1.1,83,0.00,,,0.00,WUHU216HW,2013-01-26 07:32:00,
2013-01-26 02:37:00,29.2,24.7,30.06,NW,315,0.7,1.1,83,0.00,,,0.00,WUHU216HW,2013-01-26 07:37:00,
2013-01-26 02:42:00,29.0,24.5,30.06,NW,315,0.0,1.1,83,0.00,,,0.00,WUHU216HW,2013-01-26 07:42:00,
2013-01-26 02:47:00,29.0,24.5,30.06,NW,315,0.0,0.7,83,0.00,,,0.00,WUHU216HW,2013-01-26 07:47:00,
2013-01-26 02:52:00,29.0,24.5,30.06,NW,315,0.7,1.1,83,0.00,,,0.00,WUHU216HW,2013-01-26 07:52:00,
2013-01-26 02:57:00,29.0,24.5,30.06,NW,315,0.2,1.1,83,0.00,,,0.00,WUHU216HW,2013-01-26 07:57:00,
2013-01-26 03:02:00,29.0,24.5,30.06,NW,315,0.2,1.6,83,0.00,,,0.00,WUHU216HW,2013-01-26 08:02:00,
2013-01-26 03:07:00,29.0,24.5,30.06,NW,315,0.0,1.6,83,0.00,,,0.00,WUHU216HW,2013-01-26 08:07:00,
2013-01-26 03:12:00,29.0,24.5,30.06,NW,315,0.0,1.3,83,0.00,,,0.00,WUHU216HW,2013-01-26 08:12:00,
2013-01-26 03:17:00,29.0,24.5,30.06,NW,315,0.0,0.9,83,0.00,,,0.00,WUHU216HW,2013-01-26 08:17:00,
2013-01-26 03:22:00,29.0,24.5,30.07,NW,315,0.4,0.7,83,0.00,,,0.00,WUHU216HW,2013-01-26 08:22:00,
2013-01-26 03:27:00,29.2,24.7,30.07,NW,315,0.0,0.9,83,0.00,,,0.00,WUHU216HW,2013-01-26 08:27:00,
2013-01-26 03:32:00,29.0,24.5,30.06,NW,315,0.7,0.9,83,0.00,,,0.00,WUHU216HW,2013-01-26 08:32:00,
2013-01-26 03:37:00,29.2,24.7,30.06,NW,315,0.2,1.1,83,0.00,,,0.00,WUHU216HW,2013-01-26 08:37:00,
2013-01-26 03:42:00,29.2,24.7,30.07,NW,315,0.7,1.1,83,0.00,,,0.00,WUHU216HW,2013-01-26 08:42:00,
2013-01-26 03:47:00,29.2,24.9,30.07,NW,315,0.0,1.1,84,0.00,,,0.00,WUHU216HW,2013-01-26 08:47:00,
2013-01-26 03:52:00,29.2,24.7,30.07,NW,315,0.2,1.1,83,0.00,,,0.00,WUHU216HW,2013-01-26 08:52:00,
2013-01-26 03:57:00,29.0,24.5,30.07,NW,315,0.0,1.6,83,0.00,,,0.00,WUHU216HW,2013-01-26 08:57:00,
2013-01-26 04:02:00,29.2,24.7,30.06,NW,315,0.4,1.6,83,0.00,,,0.00,WUHU216HW,2013-01-26 09:02:00,
2013-01-26 04:07:00,29.2,24.7,30.06,NW,315,0.4,0.4,83,0.00,,,0.00,WUHU216HW,2013-01-26 09:07:00,
2013-01-26 04:12:00,29.2,24.7,30.06,NW,315,0.4,1.1,83,0.00,,,0.00,WUHU216HW,2013-01-26 09:12:00,
2013-01-26 04:17:00,29.2,24.7,30.06,NW,315,0.0,1.1,83,0.00,,,0.00,WUHU216HW,2013-01-26 09:17:00,
2013-01-26 04:22:00,29.2,24.7,30.06,NW,315,0.0,1.1,83,0.00,,,0.00,WUHU216HW,2013-01-26 09:22:00,
2013-01-26 04:27:00,29.2,24.9,30.07,NW,315,0.4,0.4,84,0.00,,,0.00,WUHU216HW,2013-01-26 09:27:00,
2013-01-26 04:32:00,29.2,24.9,30.07,NW,315,1.1,1.1,84,0.00,,,0.00,WUHU216HW,2013-01-26 09:32:00,
2013-01-26 04:37:00,29.2,24.9,30.07,NW,315,0.4,1.6,84,0.00,,,0.00,WUHU216HW,2013-01-26 09:37:00,
2013-01-26 04:42:00,29.2,24.9,30.07,NW,315,0.0,1.6,84,0.00,,,0.00,WUHU216HW,2013-01-26 09:42:00,
2013-01-26 04:47:00,29.2,25.2,30.07,NW,315,0.0,0.9,85,0.00,,,0.00,WUHU216HW,2013-01-26 09:47:00,
2013-01-26 04:52:00,29.3,25.1,30.07,NW,315,0.0,0.4,84,0.00,,,0.00,WUHU216HW,2013-01-26 09:52:00,
2013-01-26 04:57:00,29.2,24.9,30.07,NW,315,0.0,0.0,84,0.00,,,0.00,WUHU216HW,2013-01-26 09:57:00,
2013-01-26 05:02:00,29.3,25.1,30.08,NW,315,0.4,0.7,84,0.00,,,0.00,WUHU216HW,2013-01-26 10:02:00,
2013-01-26 05:07:00,29.3,25.1,30.08,NW,315,0.0,0.7,84,0.00,,,0.00,WUHU216HW,2013-01-26 10:07:00,
2013-01-26 05:12:00,29.5,25.3,30.08,NW,315,0.4,0.4,84,0.00,,,0.00,WUHU216HW,2013-01-26 10:12:00,
2013-01-26 05:17:00,29.5,25.0,30.08,NW,315,0.0,0.4,83,0.00,,,0.00,WUHU216HW,2013-01-26 10:17:00,
2013-01-26 05:22:00,29.5,25.0,30.08,NW,315,0.0,0.4,83,0.00,,,0.00,WUHU216HW,2013-01-26 10:22:00,
2013-01-26 05:27:00,29.3,24.9,30.08,NW,315,0.0,0.4,83,0.00,,,0.00,WUHU216HW,2013-01-26 10:27:00,
2013-01-26 05:32:00,29.5,25.0,30.08,NW,315,0.0,0.4,83,0.00,,,0.00,WUHU216HW,2013-01-26 10:32:00,
2013-01-26 05:37:00,29.5,25.0,30.08,NW,315,0.0,0.0,83,0.00,,,0.00,WUHU216HW,2013-01-26 10:37:00,
2013-01-26 05:42:00,29.5,25.0,30.08,NW,315,0.0,0.4,83,0.00,,,0.00,WUHU216HW,2013-01-26 10:42:00,
2013-01-26 05:47:00,29.7,25.5,30.08,NW,315,0.0,0.4,84,0.00,,,0.00,WUHU216HW,2013-01-26 10:47:00,
2013-01-26 05:52:00,29.9,25.7,30.09,NW,315,0.0,0.4,84,0.00,,,0.00,WUHU216HW,2013-01-26 10:52:00,
2013-01-26 05:57:00,29.9,25.7,30.09,NW,315,0.0,0.4,84,0.00,,,0.00,WUHU216HW,2013-01-26 10:57:00,
2013-01-26 06:02:00,29.9,25.7,30.09,NW,315,0.0,0.0,84,0.00,,,0.00,WUHU216HW,2013-01-26 11:02:00,
2013-01-26 06:07:00,29.9,25.7,30.10,NW,315,0.4,0.4,84,0.00,,,0.00,WUHU216HW,2013-01-26 11:07:00,
2013-01-26 06:12:00,29.9,25.7,30.10,NW,315,0.4,0.4,84,0.00,,,0.00,WUHU216HW,2013-01-26 11:12:00,
2013-01-26 06:17:00,29.9,25.7,30.11,NW,315,0.2,0.4,84,0.00,,,0.00,WUHU216HW,2013-01-26 11:17:00,
2013-01-26 06:22:00,29.9,25.7,30.11,NW,315,0.4,0.4,84,0.00,,,0.00,WUHU216HW,2013-01-26 11:22:00,
2013-01-26 06:27:00,29.9,25.9,30.11,NW,315,0.0,0.4,85,0.00,,,0.00,WUHU216HW,2013-01-26 11:27:00,
2013-01-26 06:32:00,29.9,25.9,30.11,NW,315,0.7,0.7,85,0.00,,,0.00,WUHU216HW,2013-01-26 11:32:00,
2013-01-26 06:37:00,29.9,25.7,30.11,NW,315,0.2,0.7,84,0.00,,,0.00,WUHU216HW,2013-01-26 11:37:00,
2013-01-26 06:42:00,29.9,25.9,30.12,NW,315,0.0,0.7,85,0.00,,,0.00,WUHU216HW,2013-01-26 11:42:00,
2013-01-26 06:47:00,29.9,25.9,30.12,NW,315,0.0,0.4,85,0.00,,,0.00,WUHU216HW,2013-01-26 11:47:00,
2013-01-26 06:52:00,29.9,25.7,30.13,NW,315,0.0,0.0,84,0.00,,,0.00,WUHU216HW,2013-01-26 11:52:00,
2013-01-26 06:57:00,29.9,25.7,30.13,NW,315,0.0,0.0,84,0.00,,,0.00,WUHU216HW,2013-01-26 11:57:00,
2013-01-26 07:02:00,29.9,25.7,30.13,NW,315,0.0,0.0,84,0.00,,,0.00,WUHU216HW,2013-01-26 12:02:00,
2013-01-26 07:07:00,29.9,25.4,30.13,NW,315,0.0,0.0,83,0.00,,,0.00,WUHU216HW,2013-01-26 12:07:00,
2013-01-26 07:12:00,29.9,25.4,30.13,NW,315,0.0,0.0,83,0.00,,,0.00,WUHU216HW,2013-01-26 12:12:00,
2013-01-26 07:17:00,29.9,25.4,30.14,NW,315,0.0,0.0,83,0.00,,,0.00,WUHU216HW,2013-01-26 12:17:00,
2013-01-26 07:22:00,29.9,25.4,30.14,NW,315,0.0,0.0,83,0.00,,,0.00,WUHU216HW,2013-01-26 12:22:00,
2013-01-26 07:27:00,29.9,25.4,30.13,NW,315,0.0,0.0,83,0.00,,,0.00,WUHU216HW,2013-01-26 12:27:00,
2013-01-26 07:32:00,29.9,25.4,30.14,NW,315,0.0,0.0,83,0.00,,,0.00,WUHU216HW,2013-01-26 12:32:00,
2013-01-26 07:37:00,29.9,25.7,30.14,NW,315,0.0,0.0,84,0.00,,,0.00,WUHU216HW,2013-01-26 12:37:00,
2013-01-26 07:42:00,29.9,25.7,30.14,NW,315,0.0,0.0,84,0.00,,,0.00,WUHU216HW,2013-01-26 12:42:00,
2013-01-26 07:47:00,29.9,25.7,30.14,NW,315,0.0,0.0,84,0.00,,,0.00,WUHU216HW,2013-01-26 12:47:00,
2013-01-26 07:52:00,29.9,25.7,30.14,NW,315,0.0,0.0,84,0.00,,,0.00,WUHU216HW,2013-01-26 12:52:00,
2013-01-26 07:57:00,29.9,25.7,30.15,NW,315,0.0,0.0,84,0.00,,,0.00,WUHU216HW,2013-01-26 12:57:00,
2013-01-26 08:02:00,30.1,25.8,30.15,NW,315,0.0,0.0,84,0.00,,,0.00,WUHU216HW,2013-01-26 13:02:00,
2013-01-26 08:07:00,30.1,25.8,30.16,NW,315,0.0,0.0,84,0.00,,,0.00,WUHU216HW,2013-01-26 13:07:00,
2013-01-26 08:12:00,30.2,26.0,30.16,NW,315,0.0,0.0,84,0.00,,,0.00,WUHU216HW,2013-01-26 13:12:00,
2013-01-26 08:17:00,30.1,25.8,30.16,NW,315,0.0,0.0,84,0.00,,,0.00,WUHU216HW,2013-01-26 13:17:00,
2013-01-26 08:22:00,30.2,26.0,30.16,NW,315,0.0,0.0,84,0.00,,,0.00,WUHU216HW,2013-01-26 13:22:00,
2013-01-26 08:27:00,30.2,26.0,30.17,NW,315,0.0,0.0,84,0.00,,,0.00,WUHU216HW,2013-01-26 13:27:00,
2013-01-26 08:32:00,30.2,26.0,30.17,NW,315,0.0,0.0,84,0.00,,,0.00,WUHU216HW,2013-01-26 13:32:00,
2013-01-26 08:37:00,30.2,26.0,30.17,NW,315,0.0,0.0,84,0.00,,,0.00,WUHU216HW,2013-01-26 13:37:00,
2013-01-26 08:42:00,30.4,26.2,30.17,NW,315,0.0,0.0,84,0.00,,,0.00,WUHU216HW,2013-01-26 13:42:00,
2013-01-26 08:47:00,30.4,26.2,30.18,NW,315,0.0,0.0,84,0.00,,,0.00,WUHU216HW,2013-01-26 13:47:00,
2013-01-26 08:52:00,30.6,26.4,30.17,NW,315,0.0,0.0,84,0.00,,,0.00,WUHU216HW,2013-01-26 13:52:00,
2013-01-26 08:57:00,30.6,26.4,30.18,NW,315,0.0,0.0,84,0.00,,,0.00,WUHU216HW,2013-01-26 13:57:00,
2013-01-26 09:02:00,30.6,26.4,30.18,NW,315,0.0,0.0,84,0.00,,,0.00,WUHU216HW,2013-01-26 14:02:00,
2013-01-26 09:07:00,30.6,26.4,30.18,NW,315,0.0,0.0,84,0.00,,,0.00,WUHU216HW,2013-01-26 14:07:00,
2013-01-26 09:12:00,30.8,26.6,30.19,NW,315,0.0,0.0,84,0.00,,,0.00,WUHU216HW,2013-01-26 14:12:00,
2013-01-26 09:17:00,30.8,26.6,30.19,NW,315,0.0,0.0,84,0.00,,,0.00,WUHU216HW,2013-01-26 14:17:00,
2013-01-26 09:22:00,30.6,26.1,30.19,NW,315,0.0,0.0,83,0.00,,,0.00,WUHU216HW,2013-01-26 14:22:00,
2013-01-26 09:27:00,30.6,26.4,30.19,NW,315,0.0,0.0,84,0.00,,,0.00,WUHU216HW,2013-01-26 14:27:00,
2013-01-26 09:32:00,30.8,26.6,30.19,NW,315,0.0,0.0,84,0.00,,,0.00,WUHU216HW,2013-01-26 14:32:00,
2013-01-26 09:37:00,30.8,26.6,30.19,NW,315,0.0,0.0,84,0.00,,,0.00,WUHU216HW,2013-01-26 14:37:00,
2013-01-26 09:42:00,31.0,26.7,30.20,NW,315,0.0,0.0,84,0.00,,,0.00,WUHU216HW,2013-01-26 14:42:00,
2013-01-26 09:47:00,31.0,26.7,30.20,NW,315,0.0,0.0,84,0.00,,,0.00,WUHU216HW,2013-01-26 14:47:00,
2013-01-26 09:52:00,31.1,27.2,30.20,NW,315,0.0,0.0,85,0.00,,,0.00,WUHU216HW,2013-01-26 14:52:00,
2013-01-26 09:57:00,31.1,26.9,30.21,NW,315,0.0,0.0,84,0.00,,,0.00,WUHU216HW,2013-01-26 14:57:00,
2013-01-26 10:02:00,31.0,26.7,30.21,NW,315,0.0,0.0,84,0.00,,,0.00,WUHU216HW,2013-01-26 15:02:00,
2013-01-26 10:07:00,31.0,27.0,30.21,NW,315,0.0,0.0,85,0.00,,,0.00,WUHU216HW,2013-01-26 15:07:00,
2013-01-26 10:12:00,31.1,27.2,30.21,NW,315,0.0,0.0,85,0.00,,,0.00,WUHU216HW,2013-01-26 15:12:00,
2013-01-26 10:17:00,31.3,27.1,30.21,NW,315,0.0,0.0,84,0.00,,,0.00,WUHU216HW,2013-01-26 15:17:00,
2013-01-26 10:22:00,31.5,27.5,30.21,NW,315,0.0,0.0,85,0.00,,,0.00,WUHU216HW,2013-01-26 15:22:00,
2013-01-26 10:27:00,31.7,27.7,30.21,NW,315,0.0,0.0,85,0.00,,,0.00,WUHU216HW,2013-01-26 15:27:00,
2013-01-26 10:32:00,31.9,27.9,30.21,NW,315,0.0,0.0,85,0.00,,,0.00,WUHU216HW,2013-01-26 15:32:00,
2013-01-26 10:37:00,32.0,28.1,30.22,NW,315,0.0,0.0,85,0.00,,,0.00,WUHU216HW,2013-01-26 15:37:00,
2013-01-26 10:42:00,32.0,27.8,30.22,NW,315,0.0,0.0,84,0.00,,,0.00,WUHU216HW,2013-01-26 15:42:00,
2013-01-26 10:47:00,32.4,28.5,30.22,NW,315,0.0,0.0,85,0.00,,,0.00,WUHU216HW,2013-01-26 15:47:00,
2013-01-26 10:52:00,32.4,28.1,30.22,NW,315,0.0,0.0,84,0.00,,,0.00,WUHU216HW,2013-01-26 15:52:00,
2013-01-26 10:57:00,32.6,28.3,30.21,NW,315,0.0,0.0,84,0.00,,,0.00,WUHU216HW,2013-01-26 15:57:00,
2013-01-26 11:02:00,32.8,28.4,30.21,NW,315,0.0,0.0,84,0.00,,,0.00,WUHU216HW,2013-01-26 16:02:00,
2013-01-26 11:07:00,32.6,28.3,30.22,NW,315,0.0,0.0,84,0.00,,,0.00,WUHU216HW,2013-01-26 16:07:00,
2013-01-26 11:12:00,32.8,28.4,30.22,NW,315,0.0,0.0,84,0.00,,,0.00,WUHU216HW,2013-01-26 16:12:00,
2013-01-26 11:17:00,32.8,28.4,30.22,NW,315,0.0,0.0,84,0.00,,,0.00,WUHU216HW,2013-01-26 16:17:00,
2013-01-26 11:22:00,33.1,28.8,30.22,NW,315,0.0,0.0,84,0.00,,,0.00,WUHU216HW,2013-01-26 16:22:00,
2013-01-26 11:27:00,33.1,28.8,30.22,NW,315,0.0,0.0,84,0.00,,,0.00,WUHU216HW,2013-01-26 16:27:00,
2013-01-26 11:32:00,33.3,28.6,30.22,NW,315,0.0,0.0,83,0.00,,,0.00,WUHU216HW,2013-01-26 16:32:00,
2013-01-26 11:37:00,33.1,28.4,30.22,NW,315,0.0,0.0,83,0.00,,,0.00,WUHU216HW,2013-01-26 16:37:00,
2013-01-26 11:42:00,33.3,28.9,30.22,NW,315,0.0,0.0,84,0.00,,,0.00,WUHU216HW,2013-01-26 16:42:00,
2013-01-26 11:47:00,33.5,29.1,30.22,NW,315,0.0,0.0,84,0.00,,,0.00,WUHU216HW,2013-01-26 16:47:00,
2013-01-26 11:52:00,33.5,28.8,30.21,NW,315,0.0,0.0,83,0.00,,,0.00,WUHU216HW,2013-01-26 16:52:00,
2013-01-26 11:57:00,33.7,29.3,30.21,NW,315,0.0,0.0,84,0.00,,,0.00,WUHU216HW,2013-01-26 16:57:00,
2013-01-26 12:02:00,33.8,29.4,30.21,NW,315,0.0,0.0,84,0.00,,,0.00,WUHU216HW,2013-01-26 17:02:00,
2013-01-26 12:07:00,33.8,29.2,30.21,NW,315,0.0,0.0,83,0.00,,,0.00,WUHU216HW,2013-01-26 17:07:00,
2013-01-26 12:12:00,34.0,29.9,30.21,NW,315,0.0,0.0,85,0.00,,,0.00,WUHU216HW,2013-01-26 17:12:00,
2013-01-26 12:17:00,34.2,29.8,30.20,NW,315,0.0,0.0,84,0.00,,,0.00,WUHU216HW,2013-01-26 17:17:00,
2013-01-26 12:22:00,34.2,30.1,30.20,NW,315,0.0,0.0,85,0.00,,,0.00,WUHU216HW,2013-01-26 17:22:00,
2013-01-26 12:27:00,34.4,30.0,30.20,NW,315,0.0,0.0,84,0.00,,,0.00,WUHU216HW,2013-01-26 17:27:00,
2013-01-26 12:32:00,34.2,29.8,30.20,NW,315,0.0,0.0,84,0.00,,,0.00,WUHU216HW,2013-01-26 17:32:00,
2013-01-26 12:37:00,34.4,30.0,30.20,ESE,113,0.0,0.0,84,0.00,,,0.00,WUHU216HW,2013-01-26 17:37:00,
2013-01-26 12:42:00,34.6,30.2,30.20,ENE,68,0.9,0.9,84,0.00,,,0.00,WUHU216HW,2013-01-26 17:42:00,
2013-01-26 12:47:00,34.9,30.5,30.19,NE,45,0.0,1.3,84,0.00,,,0.00,WUHU216HW,2013-01-26 17:47:00,
2013-01-26 12:52:00,35.1,30.7,30.19,ESE,113,0.4,1.3,84,0.00,,,0.00,WUHU216HW,2013-01-26 17:52:00,
2013-01-26 12:57:00,35.5,31.1,30.19,NE,45,1.3,1.8,84,0.00,,,0.00,WUHU216HW,2013-01-26 17:57:00,
2013-01-26 13:02:00,35.5,31.1,30.19,NE,45,0.2,1.8,84,0.00,,,0.00,WUHU216HW,2013-01-26 18:02:00,
2013-01-26 13:07:00,35.5,31.1,30.19,East,90,1.3,1.8,84,0.00,,,0.00,WUHU216HW,2013-01-26 18:07:00,
2013-01-26 13:12:00,35.6,31.2,30.19,East,90,1.3,1.8,84,0.00,,,0.00,WUHU216HW,2013-01-26 18:12:00,
2013-01-26 13:17:00,35.6,31.2,30.19,ENE,68,1.8,1.8,84,0.00,,,0.00,WUHU216HW,2013-01-26 18:17:00,
2013-01-26 13:22:00,35.8,31.2,30.19,NE,45,1.1,2.0,83,0.00,,,0.00,WUHU216HW,2013-01-26 18:22:00,
2013-01-26 13:26:00,35.8,31.2,30.19,ESE,113,0.9,2.0,83,0.00,,,0.00,WUHU216HW,2013-01-26 18:26:00,
2013-01-26 13:32:00,36.2,31.8,30.19,NE,45,1.6,1.6,84,0.00,,,0.00,WUHU216HW,2013-01-26 18:32:00,
2013-01-26 13:36:00,36.4,32.0,30.19,East,90,0.9,1.8,84,0.00,,,0.00,WUHU216HW,2013-01-26 18:36:00,
2013-01-26 13:42:00,36.5,31.9,30.18,NNE,23,0.4,1.8,83,0.00,,,0.00,WUHU216HW,2013-01-26 18:42:00,
2013-01-26 13:47:00,36.9,32.5,30.18,NNE,23,0.9,1.8,84,0.00,,,0.00,WUHU216HW,2013-01-26 18:47:00,
2013-01-26 13:51:00,36.9,32.2,30.18,North,0,0.7,1.8,83,0.00,,,0.00,WUHU216HW,2013-01-26 18:51:00,
2013-01-26 13:56:00,36.9,32.2,30.18,East,90,0.9,2.0,83,0.00,,,0.00,WUHU216HW,2013-01-26 18:56:00,
2013-01-26 14:01:00,36.9,31.9,30.18,NNE,23,0.4,2.0,82,0.01,,,0.02,WUHU216HW,2013-01-26 19:01:00,
2013-01-26 14:06:00,37.1,32.4,30.18,ENE,68,0.4,2.0,83,0.01,,,0.02,WUHU216HW,2013-01-26 19:06:00,
2013-01-26 14:11:00,36.9,31.9,30.19,NE,45,2.0,3.1,82,0.01,,,0.02,WUHU216HW,2013-01-26 19:11:00,
2013-01-26 14:16:00,37.1,32.0,30.18,ENE,68,2.2,3.1,82,0.01,,,0.02,WUHU216HW,2013-01-26 19:16:00,
2013-01-26 14:21:00,37.1,32.0,30.18,ENE,68,1.1,3.1,82,0.01,,,0.02,WUHU216HW,2013-01-26 19:21:00,
2013-01-26 14:26:00,37.1,31.8,30.19,ENE,68,2.2,4.3,81,0.01,,,0.02,WUHU216HW,2013-01-26 19:26:00,
2013-01-26 14:31:00,37.1,31.8,30.19,ENE,68,2.0,4.3,81,0.01,,,0.02,WUHU216HW,2013-01-26 19:31:00,
2013-01-26 14:36:00,37.3,32.0,30.19,SE,135,0.7,2.7,81,0.01,,,0.02,WUHU216HW,2013-01-26 19:36:00,
2013-01-26 14:41:00,37.6,32.3,30.19,NNE,23,0.4,2.2,81,0.01,,,0.02,WUHU216HW,2013-01-26 19:41:00,
2013-01-26 14:46:00,37.8,32.2,30.19,ESE,113,1.8,3.4,80,0.01,,,0.02,WUHU216HW,2013-01-26 19:46:00,
2013-01-26 14:51:00,37.8,31.9,30.19,NE,45,1.1,3.4,79,0.01,,,0.02,WUHU216HW,2013-01-26 19:51:00,
2013-01-26 14:56:00,38.0,31.8,30.19,NE,45,1.3,3.4,78,0.00,,,0.02,WUHU216HW,2013-01-26 19:56:00,
2013-01-26 15:01:00,37.8,31.6,30.19,NW,315,0.7,3.4,78,0.00,,,0.02,WUHU216HW,2013-01-26 20:01:00,
2013-01-26 15:06:00,37.8,31.6,30.19,NW,315,0.0,2.7,78,0.00,,,0.02,WUHU216HW,2013-01-26 20:06:00,
2013-01-26 15:11:00,38.0,31.8,30.19,ENE,68,1.1,2.7,78,0.00,,,0.02,WUHU216HW,2013-01-26 20:11:00,
2013-01-26 15:16:00,38.0,31.8,30.19,ESE,113,1.1,2.9,78,0.00,,,0.02,WUHU216HW,2013-01-26 20:16:00,
2013-01-26 15:21:00,38.0,31.4,30.19,ENE,68,1.1,2.9,77,0.00,,,0.02,WUHU216HW,2013-01-26 20:21:00,
2013-01-26 15:26:00,38.2,31.6,30.19,ENE,68,1.8,2.5,77,0.00,,,0.02,WUHU216HW,2013-01-26 20:26:00,
2013-01-26 15:31:00,37.8,30.9,30.20,NE,45,0.4,2.0,76,0.00,,,0.02,WUHU216HW,2013-01-26 20:31:00,
2013-01-26 15:36:00,37.8,31.2,30.20,East,90,1.1,1.8,77,0.00,,,0.02,WUHU216HW,2013-01-26 20:36:00,
2013-01-26 15:41:00,38.0,31.1,30.20,East,90,0.0,1.8,76,0.00,,,0.02,WUHU216HW,2013-01-26 20:41:00,
2013-01-26 15:46:00,38.2,31.2,30.20,East,90,1.1,1.6,76,0.00,,,0.02,WUHU216HW,2013-01-26 20:46:00,
2013-01-26 15:51:00,38.2,31.2,30.20,NNE,23,1.1,2.5,76,0.00,,,0.02,WUHU216HW,2013-01-26 20:51:00,
2013-01-26 15:56:00,38.0,31.1,30.20,NNE,23,0.7,2.5,76,0.00,,,0.02,WUHU216HW,2013-01-26 20:56:00,
2013-01-26 16:01:00,38.2,31.2,30.21,South,180,0.4,1.6,76,0.00,,,0.02,WUHU216HW,2013-01-26 21:01:00,
2013-01-26 16:06:00,38.2,31.2,30.20,NNE,23,0.4,1.6,76,0.00,,,0.02,WUHU216HW,2013-01-26 21:06:00,
2013-01-26 16:11:00,38.2,31.6,30.21,NE,45,1.1,1.8,77,0.00,,,0.02,WUHU216HW,2013-01-26 21:11:00,
2013-01-26 16:16:00,38.2,30.6,30.21,East,90,1.6,1.8,74,0.00,,,0.02,WUHU216HW,2013-01-26 21:16:00,
2013-01-26 16:21:00,38.0,30.8,30.21,SE,135,0.2,1.8,75,0.00,,,0.02,WUHU216HW,2013-01-26 21:21:00,
2013-01-26 16:26:00,38.2,31.0,30.21,NNE,23,0.4,1.8,75,0.00,,,0.02,WUHU216HW,2013-01-26 21:26:00,
2013-01-26 16:31:00,38.2,31.2,30.21,ENE,68,1.6,1.6,76,0.00,,,0.02,WUHU216HW,2013-01-26 21:31:00,
2013-01-26 16:36:00,38.0,30.8,30.21,North,0,0.9,1.6,75,0.00,,,0.02,WUHU216HW,2013-01-26 21:36:00,
2013-01-26 16:41:00,38.0,30.8,30.21,East,90,0.4,1.6,75,0.00,,,0.02,WUHU216HW,2013-01-26 21:41:00,
2013-01-26 16:46:00,38.0,30.8,30.21,East,90,0.4,1.1,75,0.00,,,0.02,WUHU216HW,2013-01-26 21:46:00,
2013-01-26 16:51:00,37.8,30.2,30.22,East,90,0.9,1.6,74,0.00,,,0.02,WUHU216HW,2013-01-26 21:51:00,
2013-01-26 16:56:00,38.0,30.4,30.22,NE,45,1.1,1.6,74,0.00,,,0.02,WUHU216HW,2013-01-26 21:56:00,
2013-01-26 17:01:00,37.8,30.2,30.22,NE,45,1.3,2.5,74,0.00,,,0.02,WUHU216HW,2013-01-26 22:01:00,
2013-01-26 17:06:00,37.6,30.1,30.22,NE,45,0.4,2.5,74,0.00,,,0.02,WUHU216HW,2013-01-26 22:06:00,
2013-01-26 17:11:00,37.4,29.9,30.22,NNE,23,0.0,1.8,74,0.00,,,0.02,WUHU216HW,2013-01-26 22:11:00,
2013-01-26 17:16:00,37.4,29.9,30.22,North,0,0.0,0.4,74,0.00,,,0.02,WUHU216HW,2013-01-26 22:16:00,
2013-01-26 17:21:00,37.1,29.5,30.22,NE,45,0.4,0.4,74,0.00,,,0.02,WUHU216HW,2013-01-26 22:21:00,
2013-01-26 17:26:00,37.1,29.9,30.23,NE,45,0.0,0.4,75,0.00,,,0.02,WUHU216HW,2013-01-26 22:26:00,
2013-01-26 17:31:00,36.9,29.7,30.23,East,90,0.4,1.1,75,0.00,,,0.02,WUHU216HW,2013-01-26 22:31:00,
2013-01-26 17:36:00,36.9,29.7,30.23,ENE,68,0.2,1.1,75,0.00,,,0.02,WUHU216HW,2013-01-26 22:36:00,
2013-01-26 17:41:00,36.7,29.9,30.23,NE,45,0.4,0.9,76,0.00,,,0.02,WUHU216HW,2013-01-26 22:41:00,
2013-01-26 17:46:00,36.5,29.7,30.23,NE,45,0.0,0.7,76,0.00,,,0.02,WUHU216HW,2013-01-26 22:46:00,
2013-01-26 17:51:00,36.5,29.7,30.23,ESE,113,0.2,0.4,76,0.00,,,0.02,WUHU216HW,2013-01-26 22:51:00,
2013-01-26 17:56:00,36.4,29.2,30.23,East,90,0.0,0.4,75,0.00,,,0.02,WUHU216HW,2013-01-26 22:56:00,
2013-01-26 18:01:00,36.4,29.2,30.24,East,90,0.0,0.4,75,0.00,,,0.02,WUHU216HW,2013-01-26 23:01:00,
2013-01-26 18:06:00,36.2,29.0,30.24,West,270,0.0,0.4,75,0.00,,,0.02,WUHU216HW,2013-01-26 23:06:00,
2013-01-26 18:11:00,36.2,29.4,30.24,West,270,0.0,0.4,76,0.00,,,0.02,WUHU216HW,2013-01-26 23:11:00,
2013-01-26 18:16:00,36.0,29.2,30.25,NW,315,0.0,0.0,76,0.00,,,0.02,WUHU216HW,2013-01-26 23:16:00,
2013-01-26 18:21:00,35.8,29.0,30.25,West,270,0.0,0.4,76,0.00,,,0.02,WUHU216HW,2013-01-26 23:21:00,
2013-01-26 18:26:00,35.6,28.8,30.25,West,270,0.0,0.4,76,0.00,,,0.02,WUHU216HW,2013-01-26 23:26:00,
2013-01-26 18:31:00,35.6,28.8,30.26,SW,225,0.0,0.2,76,0.00,,,0.02,WUHU216HW,2013-01-26 23:31:00,
2013-01-26 18:36:00,35.3,28.7,30.26,WNW,293,0.4,0.9,77,0.00,,,0.02,WUHU216HW,2013-01-26 23:36:00,
2013-01-26 18:41:00,35.1,28.5,30.26,NNW,338,0.0,0.9,77,0.00,,,0.02,WUHU216HW,2013-01-26 23:41:00,
2013-01-26 18:46:00,34.9,28.7,30.26,NE,45,0.0,0.4,78,0.00,,,0.02,WUHU216HW,2013-01-26 23:46:00,
2013-01-26 18:51:00,34.7,28.5,30.26,ENE,68,0.0,0.0,78,0.00,,,0.02,WUHU216HW,2013-01-26 23:51:00,
2013-01-26 18:56:00,34.6,28.4,30.27,WSW,248,0.4,0.4,78,0.00,,,0.02,WUHU216HW,2013-01-26 23:56:00,
2013-01-26 19:01:00,34.6,28.4,30.27,SW,225,0.2,0.4,78,0.00,,,0.02,WUHU216HW,2013-01-27 00:01:00,
2013-01-26 19:06:00,34.4,28.2,30.27,ESE,113,0.0,0.4,78,0.00,,,0.02,WUHU216HW,2013-01-27 00:06:00,
2013-01-26 19:11:00,34.2,28.0,30.27,East,90,0.0,0.2,78,0.00,,,0.02,WUHU216HW,2013-01-27 00:11:00,
2013-01-26 19:16:00,33.7,27.5,30.26,NNW,338,0.0,0.2,78,0.00,,,0.02,WUHU216HW,2013-01-27 00:16:00,
2013-01-26 19:21:00,33.5,27.6,30.27,NNW,338,0.0,0.2,79,0.00,,,0.02,WUHU216HW,2013-01-27 00:21:00,
2013-01-26 19:26:00,33.3,27.8,30.27,East,90,0.0,0.4,80,0.00,,,0.02,WUHU216HW,2013-01-27 00:26:00,
2013-01-26 19:31:00,33.3,27.8,30.27,NW,315,0.0,0.4,80,0.00,,,0.02,WUHU216HW,2013-01-27 00:31:00,
2013-01-26 19:36:00,33.3,27.8,30.27,NNW,338,0.0,0.2,80,0.00,,,0.02,WUHU216HW,2013-01-27 00:36:00,
2013-01-26 19:41:00,33.3,27.8,30.27,SE,135,0.0,0.4,80,0.00,,,0.02,WUHU216HW,2013-01-27 00:41:00,
2013-01-26 19:46:00,33.3,27.8,30.27,South,180,0.0,0.4,80,0.00,,,0.02,WUHU216HW,2013-01-27 00:46:00,
2013-01-26 19:51:00,33.1,27.9,30.27,SSW,203,0.2,0.4,81,0.00,,,0.02,WUHU216HW,2013-01-27 00:51:00,
2013-01-26 19:56:00,33.1,27.9,30.28,SSW,203,0.0,0.4,81,0.00,,,0.02,WUHU216HW,2013-01-27 00:56:00,
2013-01-26 20:01:00,33.1,27.9,30.28,SSW,203,0.0,0.4,81,0.00,,,0.02,WUHU216HW,2013-01-27 01:01:00,
2013-01-26 20:06:00,32.9,27.7,30.29,SW,225,0.2,0.7,81,0.00,,,0.02,WUHU216HW,2013-01-27 01:06:00,
2013-01-26 20:11:00,32.9,27.7,30.29,SW,225,0.0,0.7,81,0.00,,,0.02,WUHU216HW,2013-01-27 01:11:00,
2013-01-26 20:16:00,32.9,27.7,30.29,SSE,158,0.0,0.4,81,0.00,,,0.02,WUHU216HW,2013-01-27 01:16:00,
2013-01-26 20:21:00,32.8,27.5,30.29,SE,135,0.0,0.4,81,0.00,,,0.02,WUHU216HW,2013-01-27 01:21:00,
2013-01-26 20:26:00,32.8,27.9,30.29,South,180,0.0,0.0,82,0.00,,,0.02,WUHU216HW,2013-01-27 01:26:00,
2013-01-26 20:31:00,32.8,27.9,30.29,South,180,0.0,0.4,82,0.00,,,0.02,WUHU216HW,2013-01-27 01:31:00,
2013-01-26 20:36:00,32.4,27.3,30.29,South,180,0.0,0.4,81,0.00,,,0.02,WUHU216HW,2013-01-27 01:36:00,
2013-01-26 20:41:00,32.2,27.1,30.29,South,180,0.0,0.4,81,0.00,,,0.02,WUHU216HW,2013-01-27 01:41:00,
2013-01-26 20:46:00,32.0,26.6,30.29,South,180,0.0,0.4,80,0.00,,,0.02,WUHU216HW,2013-01-27 01:46:00,
2013-01-26 20:51:00,31.9,26.7,30.30,South,180,0.0,0.2,81,0.00,,,0.02,WUHU216HW,2013-01-27 01:51:00,
2013-01-26 20:56:00,31.9,26.7,30.30,South,180,0.0,0.0,81,0.00,,,0.02,WUHU216HW,2013-01-27 01:56:00,
2013-01-26 21:01:00,31.9,26.7,30.30,South,180,0.0,0.0,81,0.00,,,0.02,WUHU216HW,2013-01-27 02:01:00,
2013-01-26 21:06:00,31.9,26.7,30.30,South,180,0.0,0.0,81,0.00,,,0.02,WUHU216HW,2013-01-27 02:06:00,
2013-01-26 21:11:00,31.7,26.6,30.30,South,180,0.0,0.0,81,0.00,,,0.02,WUHU216HW,2013-01-27 02:11:00,
2013-01-26 21:16:00,31.7,26.8,30.31,ESE,113,0.2,0.2,82,0.00,,,0.02,WUHU216HW,2013-01-27 02:16:00,
2013-01-26 21:21:00,31.7,26.8,30.31,South,180,0.0,0.2,82,0.00,,,0.02,WUHU216HW,2013-01-27 02:21:00,
2013-01-26 21:26:00,31.5,26.6,30.31,South,180,0.4,0.4,82,0.00,,,0.02,WUHU216HW,2013-01-27 02:26:00,
2013-01-26 21:31:00,31.5,26.6,30.31,South,180,0.0,0.4,82,0.00,,,0.02,WUHU216HW,2013-01-27 02:31:00,
2013-01-26 21:36:00,31.3,26.5,30.31,South,180,0.0,0.2,82,0.00,,,0.02,WUHU216HW,2013-01-27 02:36:00,
2013-01-26 21:41:00,31.3,26.5,30.32,South,180,0.0,0.2,82,0.00,,,0.02,WUHU216HW,2013-01-27 02:41:00,
2013-01-26 21:46:00,31.3,26.5,30.32,South,180,0.0,0.0,82,0.00,,,0.02,WUHU216HW,2013-01-27 02:46:00,
2013-01-26 21:51:00,31.3,26.5,30.33,South,180,0.0,0.4,82,0.00,,,0.02,WUHU216HW,2013-01-27 02:51:00,
2013-01-26 21:56:00,31.3,26.5,30.33,South,180,0.0,0.4,82,0.00,,,0.02,WUHU216HW,2013-01-27 02:56:00,
2013-01-26 22:01:00,31.1,26.7,30.33,South,180,0.2,0.2,83,0.00,,,0.02,WUHU216HW,2013-01-27 03:01:00,
2013-01-26 22:06:00,31.3,26.5,30.33,South,180,0.0,0.4,82,0.00,,,0.02,WUHU216HW,2013-01-27 03:06:00,
2013-01-26 22:11:00,31.1,26.7,30.34,South,180,0.0,0.4,83,0.00,,,0.02,WUHU216HW,2013-01-27 03:11:00,
2013-01-26 22:16:00,31.0,26.5,30.34,South,180,0.0,0.0,83,0.00,,,0.02,WUHU216HW,2013-01-27 03:16:00,
2013-01-26 22:21:00,31.0,26.5,30.34,South,180,0.4,0.4,83,0.00,,,0.02,WUHU216HW,2013-01-27 03:21:00,
2013-01-26 22:26:00,31.0,26.5,30.34,South,180,0.0,0.4,83,0.00,,,0.02,WUHU216HW,2013-01-27 03:26:00,
2013-01-26 22:31:00,30.8,26.3,30.34,South,180,0.0,0.4,83,0.00,,,0.02,WUHU216HW,2013-01-27 03:31:00,
2013-01-26 22:36:00,30.8,26.3,30.34,South,180,0.0,0.0,83,0.00,,,0.02,WUHU216HW,2013-01-27 03:36:00,
2013-01-26 22:41:00,30.8,26.3,30.34,South,180,0.0,0.2,83,0.00,,,0.02,WUHU216HW,2013-01-27 03:41:00,
2013-01-26 22:46:00,30.8,26.3,30.35,South,180,0.0,0.2,83,0.00,,,0.02,WUHU216HW,2013-01-27 03:46:00,
2013-01-26 22:51:00,30.8,26.3,30.35,South,180,0.0,0.2,83,0.00,,,0.02,WUHU216HW,2013-01-27 03:51:00,
2013-01-26 22:56:00,30.6,26.1,30.35,South,180,0.0,0.2,83,0.00,,,0.02,WUHU216HW,2013-01-27 03:56:00,
2013-01-26 23:01:00,30.6,26.1,30.35,South,180,0.0,0.2,83,0.00,,,0.02,WUHU216HW,2013-01-27 04:01:00,
2013-01-26 23:06:00,30.6,26.1,30.35,South,180,0.0,0.2,83,0.00,,,0.02,WUHU216HW,2013-01-27 04:06:00,
2013-01-26 23:11:00,30.6,26.1,30.35,South,180,0.0,0.0,83,0.00,,,0.02,WUHU216HW,2013-01-27 04:11:00,
2013-01-26 23:16:00,30.4,25.9,30.36,South,180,0.0,0.0,83,0.00,,,0.02,WUHU216HW,2013-01-27 04:16:00,
2013-01-26 23:21:00,30.4,26.2,30.36,South,180,0.0,0.0,84,0.00,,,0.02,WUHU216HW,2013-01-27 04:21:00,
2013-01-26 23:26:00,30.2,25.8,30.36,South,180,0.0,0.0,83,0.00,,,0.02,WUHU216HW,2013-01-27 04:26:00,
2013-01-26 23:31:00,29.9,25.4,30.36,South,180,0.0,0.2,83,0.00,,,0.02,WUHU216HW,2013-01-27 04:31:00,
2013-01-26 23:36:00,29.7,25.2,30.36,South,180,0.0,0.2,83,0.00,,,0.02,WUHU216HW,2013-01-27 04:36:00,
2013-01-26 23:41:00,29.7,25.2,30.36,South,180,0.0,0.0,83,0.00,,,0.02,WUHU216HW,2013-01-27 04:41:00,
2013-01-26 23:46:00,29.7,25.2,30.36,South,180,0.7,0.7,83,0.00,,,0.02,WUHU216HW,2013-01-27 04:46:00,
2013-01-26 23:51:00,29.7,25.2,30.36,South,180,0.0,0.7,83,0.00,,,0.02,WUHU216HW,2013-01-27 04:51:00,
2013-01-26 23:56:00,29.7,25.5,30.36,South,180,0.4,0.7,84,0.00,,,0.02,WUHU216HW,2013-01-27 04:56:00,